This demonstration page uses our WeatherBlox Daily Observations layout. Learn more.

39.01783, -85.05884

Hourly Observations for December 6, 2018

Temp ( °F °C ) Dew Point ( °F °C ) Humidity (%) Winds ( mph kmh ) Pressure ( in mb ) Visibility ( mi km ) Precip ( " mm )
12:52 am 00:52 Mostly Clear 24 -4.4 20 -6.7 84 84 S 8 13 30.3 1026 10 16.09344 0 0
1:52 am 01:52 Partly Cloudy 23 -5 19 -7.2 85 85 S 7 11 30.3 1026 10 16.09344 0 0
2:52 am 02:52 Mostly Cloudy 26 -3.3 21 -6.1 81 81 SSW 10 17 30.27 1025 10 16.09344 0 0
3:52 am 03:52 Partly Cloudy 26 -3.3 21 -6.1 81 81 SSW 12 19 30.27 1025 10 16.09344 0 0
4:52 am 04:52 Mostly Cloudy 26 -3.3 21 -6.1 81 81 S 13 20 30.27 1025 10 16.09344 0 0
5:52 am 05:52 Cloudy 26 -3.3 21 -6.1 81 81 SSW 10 17 30.27 1025 10 16.09344 0 0
6:52 am 06:52 Cloudy 26 -3.3 22 -5.6 84 84 SSW 13 20 30.27 1025 10 16.09344 0 0
7:52 am 07:52 Mostly Cloudy 27 -2.8 23 -5 85 85 SSW 10 17 30.27 1025 10 16.09344 0 0
8:52 am 08:52 Mostly Cloudy 29 -1.7 24 -4.4 82 82 SSW 13 20 30.27 1025 10 16.09344 0 0
9:52 am 09:52 Cloudy 31 -0.6 24 -4.4 76 76 SSW 13 20 30.27 1025 10 16.09344 0 0
10:52 am 10:52 Cloudy 34 1.1 25 -3.9 70 70 SSW 13 20 30.24 1024 10 16.09344 0 0
11:52 am 11:52 Cloudy 38 3.3 26 -3.3 62 62 SW 16 26 30.24 1024 10 16.09344 0 0
12:52 pm 12:52 Mostly Cloudy 41 5 26 -3.3 55 55 WSW 14 22 30.21 1023 10 16.09344 0 0
1:52 pm 13:52 Cloudy 42 5.6 26 -3.3 53 53 WSW 12 19 30.21 1023 10 16.09344 0 0
2:52 pm 14:52 Cloudy 42 5.6 28 -2.2 58 58 W 14 22 30.21 1023 10 16.09344 0 0
3:52 pm 15:52 Cloudy 41 5 28 -2.2 60 60 W 8 13 30.21 1023 10 16.09344 0 0
4:52 pm 16:52 Cloudy 40 4.4 29 -1.7 65 65 WSW 5 7 30.24 1024 10 16.09344 0.001 0.001
5:52 pm 17:52 Cloudy 40 4.4 27 -2.8 60 60 W 6 9 30.24 1024 10 16.09344 0 0
6:52 pm 18:52 Cloudy 38 3.3 30 -1.1 73 73 NW 13 20 30.27 1025 10 16.09344 0 0
7:15 pm 19:15 Cloudy with Light Rain 36 2.2 32 0 86 86 NW 14 22 30.33 1027 6 9.656064 0.01 0.254
7:25 pm 19:25 Cloudy with Light Rain 35 1.7 32 0 89 89 NW 12 19 30.33 1027 6 9.656064 0.01 0.254
7:36 pm 19:36 Cloudy with Light Snow 35 1.7 32 0 89 89 NW 12 19 30.33 1027 5 8.04672 0.01 0.254
7:38 pm 19:38 Cloudy with Light Snow 35 1.7 32 0 89 89 NW 13 20 30.33 1027 5 8.04672 0.01 0.254
7:52 pm 19:52 Cloudy with Light Snow 34 1.1 32 0 92 92 NW 10 17 30.3 1026 4 6.437376 0.02 0.508
8:16 pm 20:16 Cloudy with Light Snow 34 1.1 31 -0.6 89 89 NNW 9 15 30.36 1028 5 8.04672 0.001 0.001
8:48 pm 20:48 Cloudy with Light Snow 34 1 32 0 93 93 NNW 7 11 30.36 1028 4 6.437376 0.001 0.001
8:52 pm 20:52 Cloudy with Light Snow 34 1.1 31 -0.6 89 89 NNW 13 20 30.3 1026 4 6.437376 0.001 0.001
9:32 pm 21:32 Cloudy 33 0.6 29 -1.7 85 85 NNW 12 19 30.39 1029 9 14.484096 0.001 0.001
9:52 pm 21:52 Cloudy 33 0.6 29 -1.7 85 85 N 12 19 30.33 1027 8 12.874752 0.001 0.001
10:52 pm 22:52 Cloudy 32 0 27 -2.8 82 82 N 12 19 30.36 1028 8 12.874752 0 0
11:52 pm 23:52 Cloudy 31 -0.6 25 -3.9 79 79 N 8 13 30.39 1029 8 12.874752 0 0

Powered by AerisWeather